Location: Zilina
(49.2167°N, 18.7333°E)
Time: 13:25:31
(UTC+02:00)

ISS - Visible Passes

Search period start: 14 May 2021 00:00
Search period end: 24 May 2021 00:00
Orbit: 417 x 422 km, 51.6° (Epoch: 14 May)

Date Brightness Start Highest point End Pass type
(mag) Time Alt. Az. Time Alt. Az. Time Alt. Az.
14 May -3.0 01:18:38 33° WNW 01:19:51 54° N 01:23:11 10° ENE visible
14 May -3.8 02:53:27 10° WNW 02:56:51 87° NNE 03:00:14 10° ESE visible
14 May -1.9 21:17:25 10° SSE 21:19:11 14° SE 21:20:55 10° ESE visible
14 May -3.9 22:52:08 10° SW 22:55:27 62° SSE 22:58:47 10° ENE visible
15 May -3.1 00:29:00 10° W 00:32:20 57° N 00:35:41 10° ENE visible
15 May -3.5 02:06:00 10° WNW 02:09:23 70° NNE 02:12:45 10° E visible
15 May -3.1 03:42:57 10° W 03:46:05 35° SSW 03:49:10 10° SE visible
15 May -3.5 22:04:52 10° SW 22:08:04 43° SSE 22:11:18 10° ENE visible
15 May -3.4 23:41:28 10° W 23:44:50 64° N 23:48:12 10° ENE visible
16 May -3.3 01:18:32 10° WNW 01:21:54 60° N 01:25:14 10° E visible
16 May -3.6 02:55:25 10° WNW 02:58:43 50° SSW 03:01:59 10° SE visible
16 May -2.9 21:17:45 10° SSW 21:20:43 29° SE 21:23:42 10° E visible
16 May -3.7 22:53:58 10° WSW 22:57:20 77° NNW 23:00:43 10° ENE visible
17 May -3.1 00:31:02 10° WNW 00:34:22 55° N 00:37:42 10° E visible
17 May -3.9 02:07:56 10° WNW 02:11:17 71° SSW 02:14:39 10° ESE visible
17 May -2.2 03:45:29 10° W 03:47:39 16° SW 03:49:50 10° S visible
17 May -3.9 22:06:30 10° WSW 22:09:52 84° SSE 22:13:15 10° ENE visible
17 May -3.0 23:43:31 10° W 23:46:51 54° N 23:49:59 11° ENE visible
18 May -3.0 01:20:27 10° WNW 01:22:52 44° WNW 01:22:52 44° WNW visible
18 May -3.8 21:19:07 10° SW 21:22:25 62° SSE 21:25:47 10° ENE visible
18 May -3.1 22:55:59 10° W 22:59:19 56° N 23:02:39 10° ENE visible
19 May -3.6 00:32:59 10° WNW 00:36:22 71° NNE 00:36:27 70° NNE visible
19 May -3.3 22:08:26 10° W 22:11:47 64° N 22:15:09 10° ENE visible
19 May -3.3 23:45:30 10° WNW 23:48:51 60° N 23:50:16 31° ENE visible
20 May -1.5 01:22:23 10° WNW 01:23:11 16° W 01:23:11 16° W visible
20 May -3.6 21:20:55 10° WSW 21:24:17 76° NNW 21:27:40 10° ENE visible
20 May -3.1 22:57:59 10° WNW 23:01:19 55° N 23:04:09 13° E visible
21 May -2.7 00:34:52 10° WNW 00:37:05 37° W 00:37:05 37° W visible
21 May -3.0 22:10:27 10° W 22:13:46 54° N 22:17:06 10° ENE visible
21 May -3.9 23:47:23 10° WNW 23:50:46 88° NNE 23:51:02 74° E visible
22 May -3.1 21:22:54 10° W 21:26:14 56° N 21:29:34 10° ENE visible
22 May -3.6 22:59:54 10° WNW 23:03:16 71° NNE 23:05:01 26° E visible
23 May -1.6 00:36:51 10° W 00:37:57 18° W 00:37:57 18° W visible
23 May -3.3 22:12:24 10° WNW 22:15:45 60° N 22:19:01 10° E visible
23 May -3.1 23:49:17 10° WNW 23:51:57 43° WSW 23:51:57 43° WSW visible
